• In Romania
  • List of Countries
  • For 7 days
  • Water Temperature
  • Satellite Maps
  • Weather Map
  • Weather Widgets
  • user-avatar
    Login

    Hourly Weather Midlothian

    Today, 20 October, Saturday

    Time Temperature Precipitation Wind Pressure Humidity
    00:00 +7°C° 0 mm 3 mps 745 mmHg 97%
    01:00 +8°C° 0 mm 3 mps 745 mmHg 96%
    02:00 +8°C° 0 mm 3 mps 745 mmHg 96%
    03:00 +8°C° 0 mm 4 mps 744 mmHg 95%
    04:00 +8°C° 0 mm 4 mps 745 mmHg 95%
    05:00 +10°C° 0 mm 4 mps 745 mmHg 95%
    06:00 +10°C° 0 mm 4 mps 745 mmHg 95%
    07:00 +10°C° 0.1 mm 5 mps 745 mmHg 94%
    08:00 +10°C° 0.1 mm 5 mps 745 mmHg 93%
    09:00 +11°C° 0.1 mm 6 mps 745 mmHg 92%
    10:00 +11°C° 0 mm 6 mps 745 mmHg 90%
    11:00 +13°C° 0 mm 6 mps 745 mmHg 89%
    12:00 +12°C° 0 mm 7 mps 745 mmHg 87%
    13:00 +12°C° 0 mm 7 mps 745 mmHg 88%
    14:00 +12°C° 0 mm 7 mps 744 mmHg 88%
    15:00 +12°C° 0 mm 7 mps 744 mmHg 89%
    16:00 +13°C° 0 mm 6 mps 744 mmHg 90%
    17:00 +11°C° 0 mm 6 mps 744 mmHg 92%
    18:00 +11°C° 0 mm 6 mps 744 mmHg 93%
    19:00 +11°C° 0 mm 6 mps 744 mmHg 94%
    20:00 +11°C° 0 mm 6 mps 744 mmHg 94%
    21:00 +11°C° 0 mm 6 mps 744 mmHg 95%
    22:00 +12°C° 0 mm 5 mps 744 mmHg 95%
    23:00 +13°C° 0 mm 5 mps 744 mmHg 95%

    Tomorrow, 21 October, Sunday

    Time Temperature Precipitation Wind Pressure Humidity
    00:00 +13°C° 0 mm 5 mps 743 mmHg 96%
    01:00 +13°C° 0 mm 5 mps 743 mmHg 95%
    02:00 +13°C° 0 mm 5 mps 742 mmHg 95%
    03:00 +13°C° 0 mm 5 mps 742 mmHg 94%
    04:00 +13°C° 0 mm 6 mps 742 mmHg 93%
    05:00 +13°C° 0 mm 6 mps 741 mmHg 92%
    06:00 +13°C° 0 mm 6 mps 741 mmHg 92%
    07:00 +14°C° 0 mm 7 mps 741 mmHg 91%
    08:00 +14°C° 0 mm 7 mps 741 mmHg 90%
    09:00 +13°C° 0 mm 8 mps 741 mmHg 89%
    10:00 +12°C° 0.2 mm 8 mps 741 mmHg 87%
    11:00 +10°C° 0.2 mm 7 mps 742 mmHg 85%
    12:00 +9°C° 0.2 mm 7 mps 742 mmHg 83%
    13:00 +9°C° 0 mm 7 mps 743 mmHg 82%
    14:00 +9°C° 0 mm 7 mps 744 mmHg 80%
    15:00 +9°C° 0 mm 7 mps 744 mmHg 78%
    16:00 +6°C° 0 mm 7 mps 745 mmHg 78%
    17:00 +5°C° 0 mm 7 mps 746 mmHg 78%
    18:00 +4°C° 0 mm 6 mps 746 mmHg 78%
    19:00 +3°C° 0 mm 6 mps 747 mmHg 79%
    20:00 +3°C° 0 mm 6 mps 748 mmHg 79%
    21:00 +3°C° 0 mm 6 mps 748 mmHg 80%
    22:00 +2°C° 0 mm 6 mps 748 mmHg 80%
    23:00 +2°C° 0 mm 6 mps 749 mmHg 81%

    Day after tomorrow, 22 October, Monday

    Time Temperature Precipitation Wind Pressure Humidity
    00:00 +2°C° 0 mm 6 mps 749 mmHg 81%
    01:00 +2°C° 0 mm 5 mps 750 mmHg 80%
    02:00 +2°C° 0 mm 5 mps 750 mmHg 79%
    03:00 +2°C° 0 mm 5 mps 750 mmHg 79%
    04:00 +2°C° 0 mm 5 mps 751 mmHg 79%
    05:00 +1°C° 0 mm 5 mps 751 mmHg 80%
    06:00 +1°C° 0 mm 5 mps 751 mmHg 81%
    07:00 +2°C° 0 mm 6 mps 752 mmHg 79%
    08:00 +3°C° 0 mm 6 mps 752 mmHg 78%
    09:00 +4°C° 0 mm 6 mps 752 mmHg 76%
    10:00 +5°C° 0 mm 7 mps 752 mmHg 73%
    11:00 +6°C° 0 mm 7 mps 752 mmHg 70%
    12:00 +7°C° 0 mm 8 mps 752 mmHg 67%
    13:00 +7°C° 0 mm 8 mps 752 mmHg 70%
    14:00 +7°C° 0 mm 9 mps 751 mmHg 72%
    15:00 +7°C° 0 mm 9 mps 751 mmHg 75%
    16:00 +7°C° 0 mm 9 mps 750 mmHg 76%
    17:00 +6°C° 0 mm 9 mps 750 mmHg 78%
    18:00 +6°C° 0 mm 10 mps 750 mmHg 79%
    19:00 +6°C° 0 mm 10 mps 750 mmHg 79%
    20:00 +7°C° 0 mm 10 mps 749 mmHg 79%
    21:00 +7°C° 0 mm 10 mps 749 mmHg 79%
    22:00 +7°C° 0 mm 10 mps 749 mmHg 80%
    23:00 +7°C° 0 mm 10 mps 748 mmHg 80%

    23 October, Tuesday

    Time Temperature Precipitation Wind Pressure Humidity
    00:00 +7°C° 0 mm 10 mps 748 mmHg 81%
    01:00 +7°C° 0 mm 10 mps 748 mmHg 81%
    02:00 +7°C° 0 mm 10 mps 747 mmHg 81%
    03:00 +8°C° 0 mm 10 mps 747 mmHg 82%
    04:00 +8°C° 0 mm 10 mps 746 mmHg 82%
    05:00 +8°C° 0 mm 11 mps 746 mmHg 81%
    06:00 +9°C° 0 mm 11 mps 746 mmHg 81%
    07:00 +9°C° 0 mm 11 mps 746 mmHg 80%
    08:00 +9°C° 0 mm 11 mps 745 mmHg 80%
    09:00 +8°C° 0 mm 12 mps 745 mmHg 79%
    10:00 +9°C° 0 mm 12 mps 745 mmHg 79%
    11:00 +10°C° 0 mm 12 mps 745 mmHg 80%
    12:00 +10°C° 0 mm 12 mps 745 mmHg 81%
    13:00 +11°C° 0 mm 11 mps 745 mmHg 82%
    14:00 +11°C° 0 mm 11 mps 745 mmHg 82%
    15:00 +11°C° 0 mm 11 mps 745 mmHg 83%
    16:00 +11°C° 0 mm 11 mps 745 mmHg 84%
    17:00 +11°C° 0 mm 10 mps 745 mmHg 85%
    18:00 +11°C° 0 mm 10 mps 745 mmHg 85%
    19:00 +11°C° 0 mm 10 mps 745 mmHg 86%
    20:00 +11°C° 0 mm 9 mps 746 mmHg 86%
    21:00 +11°C° 0 mm 9 mps 746 mmHg 87%
    22:00 +11°C° 0 mm 9 mps 746 mmHg 87%
    23:00 +11°C° 0 mm 9 mps 746 mmHg 88%

    24 October, Wednesday

    Time Temperature Precipitation Wind Pressure Humidity
    00:00 +11°C° 0 mm 9 mps 746 mmHg 88%
    01:00 +11°C° 0 mm 9 mps 746 mmHg 87%
    02:00 +12°C° 0 mm 9 mps 746 mmHg 86%
    03:00 +12°C° 0 mm 8 mps 746 mmHg 86%
    04:00 +11°C° 0 mm 8 mps 746 mmHg 87%
    05:00 +11°C° 0 mm 7 mps 746 mmHg 88%
    06:00 +11°C° 0 mm 7 mps 746 mmHg 88%
    07:00 +11°C° 0 mm 7 mps 746 mmHg 88%
    08:00 +11°C° 0 mm 7 mps 746 mmHg 87%
    09:00 +11°C° 0 mm 8 mps 747 mmHg 86%
    10:00 +11°C° 0 mm 8 mps 747 mmHg 83%
    11:00 +10°C° 0 mm 8 mps 747 mmHg 80%
    12:00 +10°C° 0 mm 8 mps 747 mmHg 76%
    13:00 +10°C° 0 mm 7 mps 746 mmHg 76%
    14:00 +9°C° 0 mm 7 mps 746 mmHg 76%
    15:00 +9°C° 0 mm 7 mps 746 mmHg 76%
    16:00 +8°C° 0 mm 7 mps 746 mmHg 79%
    17:00 +6°C° 0 mm 7 mps 745 mmHg 83%
    18:00 +5°C° 0 mm 7 mps 745 mmHg 86%
    19:00 +5°C° 0 mm 7 mps 745 mmHg 86%
    20:00 +5°C° 0 mm 7 mps 745 mmHg 87%
    21:00 +5°C° 0 mm 7 mps 745 mmHg 87%
    22:00 +5°C° 0 mm 7 mps 745 mmHg 87%
    23:00 +5°C° 0 mm 7 mps 744 mmHg 87%

    25 October, Thursday

    Time Temperature Precipitation Wind Pressure Humidity
    00:00 +5°C° 0 mm 7 mps 744 mmHg 87%
    01:00 +5°C° 0 mm 7 mps 744 mmHg 87%
    02:00 +5°C° 0 mm 7 mps 743 mmHg 87%
    03:00 +5°C° 0 mm 6 mps 743 mmHg 86%
    04:00 +5°C° 0 mm 6 mps 743 mmHg 86%
    05:00 +7°C° 0 mm 6 mps 743 mmHg 85%
    06:00 +7°C° 0 mm 6 mps 742 mmHg 85%
    07:00 +7°C° 0 mm 6 mps 742 mmHg 84%
    08:00 +6°C° 0 mm 7 mps 742 mmHg 83%
    09:00 +8°C° 0 mm 7 mps 742 mmHg 82%
    10:00 +8°C° 0 mm 7 mps 741 mmHg 80%
    11:00 +9°C° 0 mm 7 mps 741 mmHg 79%
    12:00 +10°C° 0 mm 8 mps 741 mmHg 77%
    13:00 +9°C° 0 mm 8 mps 740 mmHg 79%
    14:00 +9°C° 0 mm 8 mps 740 mmHg 81%
    15:00 +9°C° 0 mm 8 mps 740 mmHg 83%
    16:00 +9°C° 0.1 mm 7 mps 740 mmHg 83%
    17:00 +8°C° 0.1 mm 7 mps 740 mmHg 83%
    18:00 +8°C° 0.1 mm 6 mps 740 mmHg 83%
    19:00 +5°C° 0 mm 6 mps 741 mmHg 83%
    20:00 +4°C° 0 mm 6 mps 741 mmHg 82%
    21:00 +3°C° 0 mm 5 mps 741 mmHg 82%
    22:00 +2°C° 0 mm 6 mps 741 mmHg 82%
    23:00 +2°C° 0 mm 6 mps 741 mmHg 83%
    Show more